Theta_e
318 319 319 317 317 317 319 317 317 317 317 318 318 316 314 314 309 307 306 307 306 306 307 305 306 309 310 313 314 313 312 312 314 318 315 311 309 305 303 302 302 302 301 302 301 300 301 302 303 305 306 307 307 306 305 305 305 306 307 308 310 310 310 310 310 311 313 317 318 317 316 317 317 317
318 319 318 318 316 319 319 318 320 319 318 315 315 315 316 315 311 310 308 308 310 307 308 308 305 307 308 310 312 311 310 312 311 313 315 313 308 304 302 301 300 300 301 301 300 300 300 301 303 305 304 305 304 304 304 304 304 305 305 305 308 310 313 311 311 312 313 314 315 316 316 317 317 318
319 319 318 319 317 319 319 319 320 320 318 317 316 316 318 318 318 315 312 308 309 312 308 306 307 306 307 308 311 310 309 308 311 313 313 312 307 305 303 301 301 301 300 300 300 300 300 301 301 302 303 304 304 304 303 303 303 303 303 303 306 308 311 311 311 313 314 315 316 316 317 317 318 318
318 318 318 317 317 318 317 318 319 318 320 320 317 318 318 317 318 317 314 311 308 310 309 307 306 306 308 308 308 309 307 306 308 311 310 310 307 310 307 302 301 301 300 300 299 300 300 300 300 300 301 302 303 302 302 302 302 302 301 301 304 305 308 309 309 310 312 313 314 315 315 315 317 317
317 316 316 316 316 318 317 317 318 317 318 319 318 318 317 316 317 316 314 310 308 309 312 309 306 307 309 306 307 306 309 310 308 307 310 310 311 311 313 308 302 300 300 300 300 300 299 299 299 299 299 300 301 302 301 301 300 299 299 299 302 304 306 307 306 308 310 312 312 311 311 313 315 316
316 317 314 313 315 316 314 316 314 315 315 315 315 315 316 314 315 317 314 312 310 308 309 307 307 307 309 305 307 309 309 308 309 306 308 308 307 307 311 311 307 299 302 300 299 301 299 299 299 299 299 299 300 301 300 300 299 299 299 298 299 301 302 303 304 305 307 309 310 310 310 311 313 316
314 315 315 314 315 316 316 316 316 316 314 314 313 314 314 314 314 313 314 314 312 310 308 310 307 308 308 309 306 307 308 308 307 307 307 307 307 308 309 309 308 299 301 299 299 299 300 299 299 299 299 299 299 300 299 299 299 299 298 297 298 298 300 300 302 304 305 307 308 308 308 310 311 313
315 315 315 315 316 315 316 316 315 315 315 315 314 314 315 314 312 316 317 317 314 311 308 309 307 308 309 307 308 307 308 308 308 308 308 308 309 309 309 308 309 303 299 299 300 299 300 299 299 299 299 299 299 300 299 299 299 299 298 298 298 297 298 300 301 303 305 306 306 307 307 309 311 314
318 317 317 317 316 316 316 317 316 316 315 314 315 315 313 312 313 315 315 315 314 313 310 310 310 311 309 309 310 309 309 309 309 309 308 308 309 310 310 310 308 305 298 300 299 299 299 299 299 299 299 299 300 300 299 299 299 299 299 298 297 297 297 299 301 303 304 304 305 306 306 307 310 313
319 319 318 318 318 317 317 317 317 318 316 314 315 314 313 312 313 315 315 316 315 313 311 312 310 311 309 309 310 310 310 310 309 310 311 311 310 311 311 311 309 310 308 310 308 303 302 300 299 300 300 299 299 299 300 299 299 299 299 297 297 296 296 298 300 302 301 303 304 305 305 306 309 312
320 320 320 320 320 319 319 318 318 319 317 316 315 315 314 312 312 313 314 314 314 314 313 313 313 312 312 313 310 308 311 310 309 309 309 310 311 312 311 310 310 310 310 306 300 301 302 301 303 301 300 299 298 299 300 300 299 299 297 296 296 296 297 298 298 301 302 304 303 302 301 300 304 306
321 321 321 321 320 320 320 320 320 320 318 317 316 315 315 313 312 312 312 313 313 313 314 313 312 313 312 311 312 311 311 310 310 309 308 307 308 309 311 311 310 311 309 308 308 303 300 301 301 298 298 298 298 299 300 301 301 298 296 295 297 298 298 298 299 300 301 302 301 300 299 301 304 304
323 323 322 321 322 322 318 309 310 309 309 320 317 317 316 314 312 312 312 312 312 313 313 312 313 312 311 312 312 310 309 308 307 309 310 308 308 308 308 309 311 309 307 307 306 305 307 305 307 307 308 307 305 303 301 302 300 298 296 296 297 298 298 299 299 300 300 300 300 299 299 299 300 299
322 322 323 324 318 312 309 307 303 301 300 302 314 319 318 313 312 312 311 311 311 312 311 310 311 310 310 310 310 309 310 310 310 309 309 306 306 307 307 308 310 309 308 306 304 304 306 307 307 307 306 307 308 309 309 308 301 299 296 296 296 297 297 298 298 298 298 298 298 298 299 298 298 299
322 324 324 327 319 314 310 311 300 298 298 298 297 296 298 304 319 313 310 310 311 310 310 311 311 309 308 309 310 310 309 310 309 308 308 307 306 305 303 302 307 310 308 305 303 303 307 307 304 305 306 307 308 308 308 298 299 297 297 296 297 297 297 298 297 297 297 297 297 297 297 298 298 299
318 319 321 323 324 325 326 323 319 306 297 295 296 295 296 292 290 293 312 313 311 310 309 309 310 309 308 308 309 309 309 308 307 308 308 307 305 304 303 303 302 307 309 304 302 302 306 306 305 304 305 306 307 307 302 298 298 297 297 297 296 297 297 297 297 297 297 296 297 297 297 298 298 297
319 319 320 320 322 320 309 314 320 322 316 296 293 294 293 293 292 291 290 293 307 313 310 309 308 309 308 307 308 309 308 307 306 307 305 306 305 305 303 303 303 305 307 303 302 301 303 304 303 304 305 306 307 307 300 297 297 297 297 297 296 296 297 297 298 297 297 297 297 297 297 298 298 298
320 319 319 319 320 320 319 320 320 320 320 312 308 306 305 306 303 293 293 294 294 301 310 310 308 311 309 307 309 308 307 305 304 304 303 305 304 303 302 304 303 305 306 303 302 300 301 304 303 301 304 306 306 306 302 296 297 297 297 297 296 296 296 297 297 296 297 296 296 296 297 297 297 297
319 318 319 318 317 315 312 308 306 315 316 313 311 309 308 308 308 311 310 311 312 309 310 309 310 310 309 309 308 308 307 307 306 305 304 303 303 303 304 304 305 305 306 306 303 298 300 303 301 302 303 305 305 306 300 297 297 297 297 296 296 296 296 296 296 296 296 296 296 296 296 296 295 296
318 318 318 317 316 314 309 298 291 298 313 313 310 308 309 308 305 301 295 292 294 304 308 309 309 309 304 297 305 304 303 304 306 305 304 304 303 302 301 300 302 300 304 305 302 299 299 303 301 301 303 304 303 304 305 299 297 298 296 296 295 295 295 296 295 296 296 296 296 296 296 296 295 295
315 314 314 315 314 311 307 294 292 293 297 312 310 309 308 307 306 303 300 293 291 290 290 289 289 289 289 291 290 290 290 297 299 300 298 299 302 299 297 298 298 299 302 303 303 300 298 301 301 300 302 302 302 302 303 305 299 297 296 296 295 295 296 295 295 295 296 295 295 295 295 295 295 294
311 305 296 307 314 310 306 291 293 292 305 311 310 309 308 307 306 305 304 302 299 290 290 289 289 289 289 288 287 289 290 289 294 299 297 299 299 297 297 295 297 299 300 301 303 300 299 301 301 299 301 301 302 302 304 304 303 296 296 295 296 296 296 295 295 295 295 295 295 295 295 295 296 303
310 306 301 294 301 305 299 289 292 291 301 312 310 310 308 307 307 306 306 305 304 304 304 302 301 300 294 298 300 300 289 291 293 298 299 300 299 297 297 297 297 296 298 302 305 298 298 299 300 299 297 296 300 303 303 303 304 304 304 303 303 296 295 295 293 294 295 295 296 295 295 296 295 303
308 306 303 297 289 289 289 290 290 291 292 310 311 311 310 308 306 306 306 305 306 305 303 304 304 303 304 304 304 304 301 298 298 300 301 301 300 298 297 297 297 295 296 301 302 298 299 299 297 300 298 295 292 299 302 301 302 303 304 302 301 297 296 295 295 294 294 296 295 295 296 296 296 301
308 306 304 302 291 289 289 290 290 291 291 294 309 309 307 304 301 300 305 299 292 302 303 302 301 302 302 303 303 302 302 302 302 301 302 301 301 299 297 296 296 296 298 301 296 299 296 297 296 298 297 297 297 297 299 300 302 302 303 302 301 301 302 301 300 302 297 294 294 295 295 295 295 299
308 306 304 301 293 288 289 290 290 290 292 293 301 297 289 289 291 302 302 303 303 302 302 301 300 301 300 300 301 301 301 300 300 301 301 301 301 300 300 297 295 294 295 300 294 298 296 295 296 295 295 295 295 296 295 297 299 300 301 301 301 300 301 300 300 300 301 303 302 299 299 295 295 295
307 306 303 297 289 289 289 290 290 290 290 293 295 288 288 289 286 292 302 300 301 300 300 300 299 299 300 300 300 299 299 300 301 300 300 300 300 299 299 299 299 297 298 299 299 299 297 295 297 294 293 294 292 293 293 293 295 299 299 299 300 300 300 299 299 299 300 300 301 296 295 294 294 295
306 304 302 295 288 289 289 288 289 289 291 293 287 288 287 288 289 300 301 301 301 297 297 298 298 299 299 299 299 298 300 298 299 299 299 299 300 299 299 299 298 299 299 298 298 298 297 295 295 296 295 293 291 290 290 294 294 296 295 297 298 298 298 299 297 298 298 299 300 300 300 300 302 299
305 294 288 287 288 288 288 287 288 289 288 286 287 288 287 289 300 301 299 299 299 298 297 298 298 298 298 298 298 299 299 299 298 298 300 300 299 299 298 297 297 296 296 296 296 296 295 295 294 295 294 293 291 292 292 291 292 293 293 293 293 295 297 298 297 297 296 297 297 298 298 299 299 300
288 288 288 287 287 288 291 298 299 297 295 288 288 287 289 302 299 298 299 299 297 297 297 296 296 297 298 298 299 298 298 298 296 297 296 295 295 296 295 294 295 297 297 297 296 296 296 295 295 294 293 292 292 291 292 291 290 292 293 292 293 294 295 296 295 296 295 295 296 297 298 299 299 299
294 292 294 294 291 291 289 291 291 292 290 293 294 298 299 299 298 299 297 296 296 296 296 295 296 297 298 299 297 297 297 296 295 296 294 293 292 293 293 292 292 293 295 296 296 296 295 295 294 294 292 291 292 292 292 292 290 291 292 292 292 289 292 295 295 294 295 295 296 296 297 298 299 298
298 297 291 292 297 297 297 297 298 299 300 297 297 298 297 298 296 293 290 291 297 298 297 297 296 296 297 296 297 296 296 295 294 295 293 292 292 292 292 290 290 291 292 294 295 296 293 296 295 294 293 292 290 291 292 292 291 291 291 292 292 292 293 293 293 294 295 295 295 294 296 297 298 299
299 298 297 296 297 297 295 295 295 298 297 296 297 297 299 298 298 297 296 296 296 297 296 295 293 292 295 295 295 294 293 293 293 294 293 293 292 292 292 289 290 290 290 291 293 294 295 295 296 295 293 294 293 292 291 289 290 291 291 291 291 291 292 293 293 293 295 294 293 294 295 297 298 299
297 296 296 296 296 294 295 295 295 295 295 294 294 294 291 293 295 293 295 295 296 294 293 293 293 293 293 292 293 292 291 292 292 293 290 292 292 290 289 289 289 291 290 291 291 292 293 293 294 294 294 294 294 294 292 290 289 291 292 292 291 291 292 293 293 294 294 294 293 293 294 295 297 299
296 296 295 295 295 295 295 294 295 294 293 293 293 294 294 294 293 292 293 293 291 291 292 293 293 293 293 292 292 291 290 290 291 291 292 292 291 291 290 289 289 289 289 289 290 291 292 292 292 291 291 291 291 293 295 294 291 291 291 291 292 291 292 293 293 294 295 295 295 292 292 294 295 298
296 296 295 295 295 294 294 294 293 294 293 293 293 293 293 293 293 292 292 292 293 292 293 293 291 291 291 291 290 290 290 289 289 290 290 290 290 289 290 290 289 289 290 290 290 292 291 291 291 289 287 287 286 286 288 294 293 292 289 289 291 292 292 293 294 294 293 293 294 294 290 290 293 297
295 295 295 295 294 294 294 294 294 293 295 294 293 293 293 292 293 293 294 291 293 292 292 292 292 292 291 291 290 290 290 289 289 289 289 289 289 290 289 288 289 290 290 290 291 291 291 290 290 289 287 285 285 284 286 290 291 293 292 289 289 291 291 292 291 290 292 294 294 294 291 291 292 294
295 295 295 296 296 297 295 294 293 292 293 293 293 293 293 294 294 294 294 294 292 292 292 292 292 292 292 291 290 290 289 289 289 289 288 289 288 288 288 288 289 289 290 291 291 290 291 290 289 289 288 285 284 284 285 288 289 290 292 292 289 289 290 289 289 289 291 293 293 294 294 291 291 292
297 295 296 295 296 297 294 293 293 293 296 294 293 293 292 293 293 292 291 292 293 292 293 292 292 291 290 291 290 289 289 288 288 288 288 288 288 288 288 288 288 289 289 288 289 290 290 290 290 290 289 287 285 286 287 286 287 290 291 291 292 289 289 290 289 290 290 291 292 295 293 293 292 288
296 296 297 296 296 296 295 295 293 294 294 294 294 295 293 291 291 291 291 291 292 291 292 292 291 291 291 290 290 290 289 288 288 288 288 288 288 288 288 288 288 287 287 287 287 288 289 289 290 290 290 290 289 289 289 289 289 290 291 291 290 290 290 291 290 290 290 292 293 292 291 293 292 292
296 296 296 297 296 296 295 295 296 294 295 296 296 292 292 292 290 290 291 291 290 291 292 292 291 291 291 290 290 289 288 288 288 288 288 288 288 288 287 286 287 287 287 287 287 288 288 291 291 288 289 290 289 290 288 286 286 288 289 291 291 290 290 290 292 292 290 292 292 291 290 290 290 290
296 295 296 296 296 296 297 297 297 295 293 294 292 293 291 290 290 288 289 288 289 291 292 292 292 291 291 290 290 289 288 288 288 288 288 288 288 288 287 288 287 288 287 286 287 288 291 292 291 292 290 289 288 286 285 287 287 288 289 291 291 288 288 288 288 288 293 292 291 290 290 290 290 289
295 295 294 294 296 296 297 296 296 295 294 294 293 291 291 290 290 290 292 293 292 292 292 292 292 291 291 291 291 290 289 288 288 288 287 287 287 287 287 288 287 287 287 287 288 289 289 290 291 290 290 289 288 288 287 288 288 289 289 290 290 291 289 288 288 287 287 287 287 288 289 289 287 286
296 296 294 295 295 295 296 296 295 294 292 292 292 291 290 289 290 290 291 292 292 292 291 291 291 291 291 291 290 290 289 288 288 287 287 287 288 288 287 287 287 287 288 288 288 289 289 290 290 290 289 288 289 288 288 288 288 289 289 290 290 290 290 291 290 288 288 287 286 287 287 287 287 287
294 294 294 294 294 294 294 293 292 293 292 291 292 290 289 290 290 291 291 291 292 291 291 291 291 291 290 290 290 288 288 288 288 288 288 288 288 288 288 288 288 288 288 288 288 288 289 289 290 290 289 289 289 289 289 289 289 288 288 288 288 289 289 288 288 287 287 287 286 286 286 286 286 286
Wind_Speed
3 4 4 5 5 5 5 5 5 4 3 4 3 3 3 2 4 5 5 4 3 4 4 3 5 4 4 3 3 3 5 6 8 6 6 7 7 8 10 12 12 12 12 12 11 11 11 12 13 13 13 13 12 12 13 13 13 12 12 10 9 8 6 5 5 6 8 8 8 8 8 8 9 10
4 4 4 4 5 4 5 5 5 4 4 3 3 1 2 2 2 3 4 5 3 4 3 3 4 3 4 3 2 3 4 6 8 4 5 6 7 8 10 10 11 11 11 11 11 10 9 9 10 10 11 11 12 12 12 12 12 12 12 13 12 12 10 8 7 7 8 8 8 7 7 7 8 9
4 4 4 4 5 4 4 4 4 4 4 4 4 4 3 4 3 4 5 5 3 2 4 3 3 3 3 3 3 2 3 3 5 2 2 5 9 9 9 9 9 9 10 10 10 10 9 9 8 9 9 9 9 9 10 10 11 12 12 12 11 13 13 13 12 11 11 10 9 7 6 5 6 8
4 4 4 4 4 3 3 3 3 3 3 3 4 4 4 4 3 1 2 5 6 2 3 3 3 3 2 1 3 3 3 3 7 2 2 4 12 6 8 10 8 8 8 8 9 9 9 9 9 9 8 8 8 8 9 10 11 9 10 11 11 12 12 13 13 13 12 12 12 10 6 4 6 8
4 4 4 4 3 1 1 3 3 3 3 3 2 3 3 3 2 2 4 5 6 4 1 2 2 2 2 3 1 3 2 2 3 1 2 1 1 1 2 6 8 6 6 7 7 7 8 9 8 8 8 7 7 7 8 8 9 8 9 10 11 12 13 13 13 14 13 12 11 11 10 8 7 7
2 2 3 4 3 1 2 1 3 4 3 4 4 4 2 3 3 0 2 4 4 5 4 3 3 3 2 2 2 2 1 1 2 1 1 1 2 3 3 2 5 5 5 6 6 6 6 7 8 8 8 7 6 6 7 7 7 7 6 9 11 11 12 13 13 14 14 14 13 11 10 10 10 8
4 3 2 3 3 1 1 1 1 1 2 2 3 2 2 2 2 2 1 2 4 4 4 4 4 3 2 1 3 3 2 1 2 1 1 2 2 1 2 3 4 7 2 2 4 6 5 6 7 7 7 7 7 6 6 7 6 7 7 8 10 11 12 12 13 14 15 14 14 13 11 11 11 11
4 4 3 3 3 3 2 2 2 2 1 2 2 3 3 3 2 2 1 1 2 3 4 4 3 4 4 4 3 2 3 1 1 2 1 1 1 3 3 3 2 7 4 6 4 4 6 6 6 7 7 7 7 6 6 7 6 6 6 7 8 11 12 12 12 13 14 14 13 13 13 12 11 11
3 4 4 3 4 4 3 3 3 2 2 3 2 2 2 3 3 2 2 1 2 3 3 3 1 2 3 1 0 1 2 2 3 3 2 2 3 2 4 4 2 5 9 9 9 5 7 7 4 6 7 7 7 6 6 7 7 6 6 7 9 11 11 12 13 13 12 12 12 12 12 12 12 12
4 4 5 5 5 5 5 4 3 3 4 3 3 2 3 2 3 2 2 2 1 1 3 3 3 2 2 3 1 1 1 2 3 3 3 2 4 2 3 4 3 4 2 3 3 5 8 6 6 8 6 7 8 7 6 8 7 5 7 9 11 11 11 11 11 11 11 11 11 11 12 12 12 12
5 6 6 6 6 6 6 6 6 5 5 4 4 4 3 3 2 3 3 3 3 3 2 2 2 3 2 1 2 3 1 3 2 3 5 6 4 4 5 6 3 2 3 5 10 8 5 7 8 5 9 9 9 9 8 8 5 1 6 8 9 9 10 10 11 11 11 12 11 10 10 9 9 10
5 6 7 7 8 7 7 7 7 7 7 5 6 6 4 4 4 4 4 4 4 4 4 5 3 3 2 3 1 2 2 3 2 4 5 7 7 6 6 6 5 3 4 6 7 5 10 11 12 15 16 13 8 10 11 9 5 4 7 7 8 9 10 11 11 11 12 12 11 10 10 9 9 8
6 6 6 7 8 6 2 5 5 6 5 5 7 6 6 6 5 5 5 5 6 6 6 5 4 5 6 4 4 4 3 4 4 4 4 6 7 7 8 7 5 3 5 6 7 8 8 7 7 8 7 3 8 7 10 7 9 7 7 7 8 9 11 11 12 12 12 12 11 10 9 8 8 7
6 6 5 5 3 5 2 3 4 5 6 7 7 6 5 6 6 6 6 6 5 6 6 7 5 6 6 6 2 4 2 3 4 5 5 7 7 8 8 7 6 4 4 7 9 9 8 7 8 8 6 5 4 5 5 5 8 7 6 7 7 8 9 10 11 12 12 11 10 9 9 8 7 7
6 6 5 4 8 6 5 7 8 7 6 7 9 6 10 6 2 6 7 6 6 5 5 6 5 5 4 4 3 4 3 3 4 5 5 6 7 7 9 9 8 3 5 8 10 10 8 7 8 7 7 6 6 6 4 10 10 8 7 7 7 8 10 10 10 11 12 10 9 8 8 8 8 8
6 5 4 4 3 3 2 2 6 8 9 8 3 1 3 6 8 8 4 4 5 4 6 5 5 4 4 4 3 4 3 5 6 6 6 7 7 8 9 9 9 7 7 10 11 11 8 6 8 8 7 7 6 6 4 5 6 7 7 8 7 7 9 9 9 10 11 11 11 9 8 7 6 6
4 4 3 3 2 2 4 5 4 3 6 6 6 7 9 9 8 8 7 7 5 5 4 5 5 4 3 4 4 2 3 4 7 7 7 7 8 8 10 10 10 10 9 10 10 10 9 8 8 8 7 7 6 6 8 9 7 6 6 6 6 7 8 7 7 7 8 10 10 10 9 9 8 7
0 1 1 1 1 2 1 2 1 1 3 5 5 6 6 5 6 6 7 5 4 4 4 3 5 2 2 4 3 2 2 4 6 7 8 8 8 9 11 12 12 12 8 9 9 10 9 7 8 9 9 7 7 7 4 8 7 5 4 4 6 9 8 8 8 7 7 7 9 10 10 10 9 8
2 2 2 1 2 3 4 4 6 2 2 3 4 6 7 6 6 4 4 3 2 1 1 2 2 1 1 1 0 1 2 3 5 5 8 9 10 10 11 11 11 10 8 8 6 10 9 8 9 9 8 8 8 8 8 9 10 8 5 5 5 8 9 9 8 8 9 9 8 9 8 10 10 9
3 2 2 2 3 4 5 5 6 6 1 5 5 7 7 6 6 7 5 6 8 7 5 4 4 4 6 6 5 5 4 4 5 6 7 8 9 10 9 9 9 9 7 6 7 9 10 8 10 10 8 9 10 9 9 5 11 10 8 6 7 8 10 9 9 9 9 10 10 9 10 9 10 11
4 4 4 2 3 5 5 3 4 4 6 6 6 6 6 5 5 6 5 6 7 8 9 8 8 8 6 6 5 4 4 4 6 6 8 9 8 9 11 11 10 9 7 7 8 10 11 9 9 10 9 10 10 10 10 10 9 9 9 10 10 10 10 10 10 10 9 9 10 11 10 10 10 13
5 7 10 9 3 5 5 2 3 5 5 4 5 5 6 5 5 5 4 4 4 5 5 5 5 4 4 2 2 2 2 3 5 6 8 9 8 10 10 11 10 10 9 10 8 8 9 9 9 11 10 10 10 9 8 7 3 13 12 15 14 13 14 13 11 10 10 11 11 11 11 11 10 9
5 6 8 11 9 7 5 5 6 8 6 3 2 3 3 4 4 4 4 4 4 5 5 5 5 5 6 6 6 7 10 8 8 8 9 8 8 9 10 10 10 10 8 3 4 6 9 9 8 9 10 10 8 7 8 7 8 9 10 8 9 17 15 12 12 13 14 13 13 12 12 12 9 8
6 7 6 7 8 9 9 9 10 10 11 3 3 2 3 4 3 4 3 4 3 1 3 3 3 5 4 5 6 6 8 9 10 9 8 8 8 9 10 10 9 10 9 8 8 9 9 9 11 9 10 11 10 8 8 9 10 11 11 10 11 6 12 14 14 19 18 16 17 16 14 13 11 9
7 7 6 6 6 8 10 11 11 12 12 10 4 5 6 7 7 4 2 4 2 4 4 5 6 6 5 6 6 6 6 6 6 7 7 7 7 9 10 10 10 10 9 5 9 9 11 11 13 11 12 12 13 13 10 13 12 12 12 11 10 10 11 12 12 11 12 21 19 18 17 17 16 12
7 7 7 7 6 8 11 11 12 12 12 11 7 8 8 8 8 2 2 2 3 4 4 5 5 5 6 6 6 6 6 6 6 6 6 7 9 10 11 12 12 12 11 9 7 13 13 12 12 13 12 12 13 12 14 12 12 12 12 12 11 11 11 11 11 11 12 10 8 12 13 15 12 13
7 7 8 8 7 10 11 11 11 11 11 10 8 8 8 6 2 6 2 2 4 4 4 5 6 6 6 6 6 6 6 6 6 6 6 8 11 12 12 12 12 13 13 13 13 13 12 13 12 13 13 12 14 13 12 12 11 10 12 11 11 11 11 11 11 11 11 11 11 11 6 13 16 16
8 8 8 8 10 11 11 11 11 11 10 8 7 6 4 2 5 3 2 3 3 4 5 5 5 5 5 6 6 5 6 6 7 8 8 10 12 10 11 12 13 13 14 14 13 12 12 13 12 12 13 13 13 13 13 12 12 12 12 11 11 11 11 11 12 12 11 11 12 10 11 9 7 10
8 13 16 13 12 12 13 14 13 11 9 7 6 4 4 6 4 1 3 3 4 5 5 5 5 6 5 5 6 5 6 8 9 9 10 10 11 11 11 12 11 11 10 10 11 11 11 11 12 11 11 11 12 13 12 13 12 12 12 12 12 11 11 11 11 11 10 10 10 10 10 9 9 9
18 16 14 14 13 13 11 8 6 6 6 7 6 5 7 5 1 2 3 3 3 4 5 5 5 5 5 5 5 6 9 10 10 10 10 10 10 10 10 10 10 10 10 10 11 11 11 11 11 11 11 11 11 12 12 12 12 12 11 11 12 12 11 11 11 10 10 10 10 10 9 9 10 8
10 12 10 7 7 9 10 10 10 8 7 7 7 6 3 1 1 2 2 3 4 4 4 5 5 5 6 6 7 9 9 9 9 9 9 9 9 9 10 10 11 10 10 10 10 10 10 10 11 11 11 11 11 12 12 12 13 13 12 11 11 11 10 11 11 11 10 10 10 9 9 9 9 8
10 9 9 9 7 7 6 6 5 5 4 2 0 1 1 0 1 0 1 4 4 3 4 5 5 6 6 7 9 10 9 9 9 9 9 9 10 10 10 10 10 10 10 10 9 9 9 9 10 10 11 11 12 11 11 12 12 12 12 12 11 11 11 11 11 11 11 10 10 10 10 10 9 9
10 9 8 5 6 5 3 3 2 3 2 0 1 1 2 1 1 1 2 3 4 4 5 6 5 5 8 9 9 9 9 9 9 9 9 9 10 10 9 10 10 11 11 11 10 9 9 9 10 10 10 11 12 12 12 12 12 12 12 12 11 11 10 10 10 10 10 10 10 10 10 10 9 10
8 6 5 5 4 4 3 2 2 1 0 0 1 1 1 2 1 2 3 3 3 4 4 4 5 6 7 7 9 9 9 9 9 9 10 10 10 9 9 9 10 10 10 11 10 10 9 9 9 9 10 11 11 12 12 12 13 12 11 11 11 11 10 10 10 10 10 9 10 10 10 9 9 9
6 6 5 4 3 3 2 1 1 1 0 1 1 1 0 0 0 1 3 2 3 3 3 5 6 7 7 7 7 8 9 10 10 10 9 9 9 9 10 10 10 10 10 11 10 10 10 9 9 9 9 9 10 11 13 13 13 12 11 11 11 11 10 9 9 8 8 8 7 8 7 9 10 9
5 4 4 3 3 2 2 2 1 1 0 1 0 1 1 0 0 2 1 2 5 3 4 6 6 6 6 7 8 8 9 8 9 10 9 8 9 9 10 10 11 11 11 11 11 10 9 9 9 9 9 9 8 10 8 12 15 11 11 9 9 9 9 8 6 6 6 8 8 6 6 7 8 8
4 3 3 3 3 3 2 2 2 2 2 1 1 0 0 1 1 1 2 2 3 3 5 6 6 6 7 7 7 7 8 8 9 9 9 9 9 10 10 10 10 10 11 11 10 10 9 10 9 10 10 10 10 10 10 5 9 12 10 9 9 8 8 6 6 6 7 8 8 7 6 6 7 8
4 4 4 4 5 4 3 2 2 2 2 1 1 0 1 2 2 3 3 4 2 3 5 6 6 6 7 6 8 8 8 8 9 9 9 9 9 9 9 9 10 10 11 11 10 10 9 10 10 10 10 10 10 10 10 7 5 3 8 8 8 7 5 5 6 6 6 8 8 7 5 5 6 6
6 5 4 4 4 4 3 2 3 2 3 2 1 0 0 2 2 2 2 2 4 4 5 6 6 6 7 7 7 8 9 9 9 9 9 9 9 9 9 9 9 9 10 11 10 10 9 9 9 10 10 10 10 9 9 10 9 8 5 6 6 7 6 6 7 7 7 7 6 6 5 4 5 4
6 6 5 5 4 4 4 4 3 2 2 2 1 1 1 1 1 2 2 3 4 5 5 5 6 7 7 7 8 8 9 9 9 9 10 9 9 9 9 9 10 10 10 10 10 10 10 9 9 8 7 6 7 7 8 9 10 9 10 9 13 11 9 8 8 7 7 6 7 6 6 4 5 2
6 5 5 4 5 5 4 5 4 2 2 2 1 1 1 2 1 2 2 3 3 3 4 5 6 6 7 8 8 8 9 9 9 9 9 9 9 9 9 10 10 9 9 10 10 10 9 9 8 4 5 5 4 4 6 8 9 8 6 5 6 11 15 11 7 7 7 7 7 7 7 6 5 4
6 3 5 5 5 5 5 4 4 2 1 1 0 0 1 1 1 1 3 5 7 6 5 5 6 6 7 7 8 8 9 9 9 10 10 10 10 10 10 9 9 8 8 9 10 10 10 10 9 8 4 4 6 6 7 8 8 7 5 4 1 6 6 4 3 4 7 7 7 6 5 4 3 4
6 5 3 4 5 5 4 4 3 2 1 0 0 1 1 1 1 1 2 2 3 3 4 5 6 6 7 8 8 8 9 9 9 10 10 10 9 10 10 9 9 9 9 9 9 9 9 8 8 7 6 6 6 6 7 7 7 6 5 4 2 2 3 6 7 7 9 10 8 3 2 2 3 3
4 5 3 3 3 4 5 4 3 1 1 0 0 0 1 2 2 2 2 2 3 4 4 5 6 7 8 8 9 8 8 8 9 9 10 10 10 9 9 10 10 10 9 9 9 8 8 8 8 7 7 7 6 6 8 7 6 4 4 3 2 2 1 0 1 4 3 9 13 10 6 2 2 3
4 4 4 3 3 3 3 2 2 1 1 0 1 2 1 1 2 2 2 2 2 4 4 5 6 7 8 9 9 9 8 9 10 9 9 9 9 8 8 9 10 10 10 9 9 9 8 8 7 6 6 7 6 6 6 6 5 4 4 3 3 2 0 1 1 1 3 3 10 11 7 7 8 10
Wind_Direction
109 96 99 102 109 95 85 86 99 100 115 126 160 199 176 168 141 156 132 108 101 78 13 72 79 64 72 62 68 54 49 21 323 96 91 72 64 46 48 45 44 40 39 38 38 34 32 30 28 27 28 29 28 27 26 20 17 14 13 11 7 356 346 312 280 272 283 281 280 286 299 288 289 288
107 111 106 103 97 85 93 89 91 102 107 132 139 112 109 258 162 137 128 107 74 102 66 35 80 74 93 116 97 91 99 20 324 76 103 100 84 81 60 51 46 42 37 36 32 33 33 30 29 28 29 28 28 25 23 20 18 10 8 6 2 358 356 354 336 308 282 272 264 256 252 263 269 270
111 104 96 96 93 90 90 100 100 105 119 117 117 97 76 59 58 107 123 133 77 7 93 74 44 60 54 64 82 75 59 38 310 105 117 119 131 112 78 62 53 42 39 33 29 27 25 24 25 27 29 29 28 22 21 19 16 15 12 6 2 1 358 358 354 343 329 311 298 273 253 251 259 258
121 120 114 100 99 108 130 111 100 94 80 77 101 105 99 90 70 107 118 109 118 80 89 103 117 115 82 43 117 124 132 125 273 110 131 134 166 198 106 85 58 49 38 32 25 25 21 17 18 15 15 19 23 27 24 19 17 12 7 5 2 0 359 356 352 347 342 333 320 305 283 254 248 249
142 142 126 124 116 114 90 117 137 128 119 126 120 113 122 112 111 102 113 124 122 124 145 159 101 89 232 112 53 96 107 179 151 167 62 355 256 286 138 112 88 54 40 28 20 15 13 12 11 9 8 7 9 17 22 21 17 10 5 359 354 354 352 351 349 344 341 337 332 321 309 286 261 251
120 137 153 133 134 143 126 163 176 143 170 161 161 150 147 121 113 25 132 133 144 137 167 160 152 133 255 123 88 84 51 82 315 57 124 111 340 15 315 139 98 91 39 13 13 360 355 2 357 357 357 357 352 357 5 16 16 10 359 358 351 347 345 344 342 340 338 335 333 328 317 301 282 255
144 171 160 159 152 169 169 216 24 82 211 219 107 93 108 105 128 132 97 154 135 157 148 171 172 145 133 291 137 148 128 342 306 269 44 353 26 9 332 319 115 113 72 350 345 340 334 327 346 337 339 343 339 334 345 354 2 4 357 353 346 343 338 337 335 336 335 332 331 327 321 311 297 286
165 178 182 175 177 184 197 217 155 205 155 256 123 164 136 150 138 104 155 257 126 154 156 187 199 153 180 188 188 189 194 207 253 326 261 223 357 358 343 312 333 115 167 215 258 302 294 282 320 320 313 324 327 320 319 330 339 349 353 348 341 336 332 331 330 332 330 327 324 323 320 315 305 290
213 192 206 198 187 192 214 199 216 186 218 234 158 201 167 176 144 179 232 137 169 166 156 147 143 186 187 123 122 324 297 194 203 202 231 301 309 338 335 308 302 160 197 217 221 244 272 261 280 285 286 301 303 302 302 311 318 334 349 349 342 333 328 327 326 325 321 319 320 319 320 318 311 300
214 227 225 215 209 205 215 218 213 216 209 233 237 216 248 173 155 207 183 221 174 202 157 172 167 216 212 195 170 181 242 322 317 339 322 246 214 270 308 310 299 325 330 331 282 240 253 201 258 241 263 274 270 268 278 290 300 319 355 353 342 333 325 317 312 313 315 314 315 316 319 317 313 310
231 229 229 230 224 221 220 223 221 211 218 217 240 230 218 253 169 204 231 222 203 216 199 202 234 191 176 266 235 161 246 219 257 344 337 320 327 323 320 312 303 275 297 269 218 239 288 289 281 260 245 237 243 255 258 275 260 325 22 356 342 328 318 315 315 314 314 317 317 317 317 314 311 308
243 241 244 243 243 239 233 235 236 222 217 211 222 220 209 230 204 223 225 250 259 250 260 282 267 275 279 217 257 299 274 332 322 16 337 322 321 317 319 306 300 281 299 317 327 216 208 231 229 232 237 231 250 240 253 230 199 85 14 357 342 326 321 318 319 321 324 326 325 325 321 317 315 311
246 253 254 253 249 247 282 18 4 0 350 247 229 218 200 210 211 236 236 231 244 265 271 270 264 273 271 273 304 301 324 342 342 331 318 311 312 317 310 312 311 293 302 314 321 320 321 306 306 312 309 194 204 248 224 185 149 53 4 349 337 326 320 320 322 323 324 327 329 332 334 334 329 326
268 262 256 245 135 83 137 255 274 271 287 307 300 310 223 196 222 232 241 245 247 263 266 271 287 287 301 322 331 307 310 323 316 321 324 318 320 310 308 304 313 332 316 319 316 319 317 309 301 295 300 298 261 286 276 32 3 353 340 329 326 317 313 319 322 320 322 324 326 326 330 335 336 336
287 276 262 254 141 168 186 218 218 232 233 244 270 314 342 353 278 238 234 243 259 264 265 282 274 274 288 276 274 288 318 312 323 322 321 314 314 315 318 313 316 327 354 318 314 309 311 300 295 299 297 294 286 284 285 33 336 324 306 307 314 314 314 319 320 319 320 322 319 320 322 325 331 331
276 280 282 276 268 257 14 307 190 200 213 222 218 106 56 60 47 43 14 275 237 243 266 268 267 278 275 288 275 288 321 330 324 316 312 312 310 309 306 305 304 326 337 317 308 302 301 296 295 287 282 287 283 285 309 277 261 276 295 301 305 305 306 311 314 318 322 322 322 321 317 314 319 320
299 303 299 286 273 99 130 226 244 222 173 131 98 109 97 76 69 64 48 37 11 330 278 280 287 268 304 291 299 41 358 337 301 305 308 318 312 303 298 297 306 307 319 302 292 295 304 301 288 287 287 286 283 275 236 209 223 256 291 298 293 297 287 284 293 304 315 318 319 321 321 321 320 314
324 21 326 301 131 70 63 30 13 250 150 143 153 160 175 155 113 111 105 82 61 0 318 320 297 16 344 308 35 57 346 311 302 309 311 315 304 299 295 301 294 292 288 278 292 288 289 300 302 291 291 289 286 275 269 176 232 243 245 280 290 285 279 280 292 293 294 299 305 308 313 317 317 315
129 117 118 104 81 79 48 34 351 333 143 147 156 168 170 162 161 103 66 42 19 50 322 315 335 31 14 25 314 274 288 283 290 305 304 300 293 289 286 278 268 272 267 255 249 277 294 300 292 288 291 291 284 284 282 215 205 194 194 215 250 267 275 277 276 285 290 290 286 287 295 300 301 301
115 95 85 102 96 81 77 43 358 345 348 152 153 146 135 123 98 73 58 36 34 31 29 29 26 47 49 34 29 21 349 301 293 283 274 269 267 270 277 284 293 286 285 273 263 275 284 294 292 292 288 287 284 287 285 243 178 183 191 207 228 242 260 264 269 275 280 283 284 281 282 285 288 290
81 50 17 55 95 96 82 28 350 7 322 137 144 143 147 140 128 118 110 74 56 60 65 67 68 65 61 62 49 40 16 345 329 300 287 279 288 293 291 291 290 290 296 290 280 281 284 289 291 293 291 286 287 285 283 284 170 178 185 220 230 243 247 250 260 263 264 268 272 279 276 272 275 283
89 57 29 355 91 97 96 68 23 352 309 139 138 148 152 153 145 135 142 145 105 100 102 99 102 113 118 145 188 183 201 220 259 268 282 297 298 286 284 287 293 294 294 283 281 270 276 294 293 294 294 290 277 271 275 286 197 180 207 215 228 229 227 234 241 248 252 254 261 261 261 272 279 275
112 93 61 38 42 68 82 63 48 10 335 139 152 156 187 183 175 140 156 166 174 180 189 177 185 190 186 210 222 193 188 199 220 250 267 280 279 284 287 291 294 290 281 333 64 279 286 293 296 301 299 291 290 288 286 278 282 293 298 281 235 214 224 224 224 233 239 243 243 245 253 254 251 271
129 116 102 74 59 78 77 67 55 41 17 9 127 217 222 226 152 140 143 36 346 256 277 287 265 279 263 255 249 246 193 202 222 243 260 274 281 284 286 287 286 283 291 299 319 301 300 300 295 298 294 297 297 295 288 282 281 287 289 278 281 240 200 211 222 226 235 234 230 235 233 230 228 261
147 140 117 105 76 87 81 74 64 54 39 22 54 39 55 47 35 356 161 118 276 270 265 259 260 257 253 247 248 245 250 248 249 255 257 265 273 284 287 289 289 286 290 322 58 301 292 291 287 288 287 286 290 291 289 292 288 285 277 280 289 292 295 291 297 289 237 224 227 223 219 221 212 227
142 133 132 125 109 95 85 80 75 67 59 51 74 65 68 50 31 346 335 251 232 259 261 277 281 281 279 281 283 284 282 279 272 274 277 273 281 284 284 288 290 290 291 298 310 295 292 287 292 296 293 291 290 293 294 291 294 290 292 290 285 286 289 294 293 285 289 294 265 222 221 222 217 214
128 120 113 109 108 96 90 83 81 88 95 85 83 90 77 75 360 276 258 344 286 279 295 295 291 290 286 286 291 293 293 296 303 301 297 294 292 291 286 280 280 281 286 286 284 282 282 282 285 283 286 286 289 291 287 287 287 292 293 292 292 290 289 290 284 286 289 288 279 290 233 198 202 210
128 133 128 118 112 100 93 85 74 65 66 90 106 101 119 187 252 270 280 256 288 293 281 281 284 293 306 305 294 304 316 313 311 301 290 277 273 275 282 285 284 285 291 294 296 292 289 287 287 286 285 284 282 282 287 288 287 290 291 291 291 289 289 286 284 286 285 280 286 278 279 275 225 207
92 92 104 117 118 113 106 106 104 94 94 104 110 138 206 243 244 277 307 309 301 294 294 294 305 302 301 309 308 306 305 300 289 277 286 298 307 301 294 290 285 282 277 274 277 278 279 280 282 285 285 282 279 279 282 285 292 291 291 295 289 289 290 287 286 292 292 295 295 292 290 285 280 272
105 111 115 118 122 127 139 153 135 120 122 145 160 189 240 245 338 321 315 306 298 300 308 308 299 303 307 298 313 309 292 296 302 311 308 304 302 301 296 293 289 288 286 283 282 282 281 279 280 281 280 278 276 280 281 286 286 287 288 285 286 290 283 281 284 284 288 285 278 279 281 285 282 285
110 125 130 116 93 82 69 73 90 118 147 175 190 195 203 25 338 2 341 334 310 301 307 311 310 314 310 306 290 288 312 308 301 305 305 300 294 296 295 294 293 292 291 290 287 286 284 281 280 281 280 281 280 278 282 283 283 283 283 283 284 281 285 289 287 284 285 287 292 290 284 275 266 260
129 126 110 122 136 140 152 157 172 169 176 167 107 348 4 18 62 302 238 249 262 278 309 312 308 309 305 300 308 318 309 302 303 301 298 296 293 291 295 292 291 294 296 295 294 288 276 273 271 271 271 274 277 280 282 279 278 281 282 282 280 277 280 282 284 286 287 288 283 281 277 273 274 276
137 142 155 157 159 169 170 171 174 158 168 123 69 24 293 235 228 261 305 318 323 331 319 317 322 310 310 313 316 310 306 304 304 302 299 297 295 296 294 291 293 296 300 301 302 299 296 290 281 274 272 274 272 275 277 278 274 275 278 280 278 278 282 280 285 285 284 278 274 276 274 272 273 276
148 160 163 163 166 162 173 175 167 171 158 176 186 142 75 260 324 343 314 302 330 334 315 307 301 311 315 306 305 306 304 304 302 305 302 297 297 294 292 292 292 295 297 299 301 300 297 291 290 283 275 267 264 263 262 264 270 273 276 281 279 281 278 281 279 278 275 276 284 281 276 276 273 267
161 163 163 159 158 164 161 173 155 122 186 207 216 178 204 237 230 244 280 334 326 315 312 308 314 316 312 310 309 306 306 303 301 301 300 297 297 295 294 293 295 297 297 297 296 296 297 296 292 287 279 277 276 268 251 250 263 265 270 270 279 278 282 281 280 289 307 302 295 298 300 293 285 284
162 158 156 158 158 158 172 156 139 174 181 163 212 223 228 246 353 317 304 357 312 313 310 321 322 314 310 306 303 301 301 302 300 300 301 300 299 297 294 293 293 293 291 291 294 296 296 292 289 285 282 280 277 277 276 226 227 255 263 275 281 284 283 286 317 311 293 289 286 284 286 290 292 298
155 153 156 161 157 169 173 148 174 164 165 166 183 221 296 296 315 309 355 275 273 299 322 322 314 312 310 311 309 308 307 305 302 302 300 299 298 297 296 293 292 293 294 292 293 295 291 288 284 281 280 279 275 275 276 302 235 223 256 268 275 278 291 312 305 296 288 281 288 290 292 298 295 300
154 157 160 164 165 167 152 162 153 168 166 165 178 221 264 297 317 337 326 316 335 314 323 321 319 314 318 320 315 313 310 305 302 300 299 301 298 297 296 298 299 297 296 296 294 293 290 284 280 275 273 270 278 279 289 292 290 242 208 248 268 277 291 287 281 278 281 285 285 295 303 285 288 294
161 157 160 162 161 158 160 166 163 164 166 163 174 216 279 320 339 333 329 328 327 322 326 320 318 325 321 317 316 313 309 308 304 301 299 297 296 297 298 298 295 294 296 294 293 290 289 282 279 277 267 265 265 278 294 297 290 292 263 217 261 270 265 265 274 276 276 279 280 281 271 262 275 277
156 155 159 158 161 158 161 160 165 159 160 182 195 17 360 324 331 331 333 334 342 334 322 324 329 328 321 323 319 314 308 302 301 299 298 296 296 297 295 294 292 293 291 288 289 290 288 285 282 285 296 277 273 283 293 289 286 281 278 262 237 246 262 269 268 276 281 286 302 292 288 284 280 212
147 152 150 161 154 158 157 162 159 150 169 144 125 130 299 351 327 343 345 338 342 318 326 332 335 329 325 324 320 317 310 307 304 303 300 298 296 295 293 292 287 282 286 290 290 289 285 287 298 307 287 284 286 291 274 268 267 276 275 280 227 222 236 256 278 284 286 295 285 284 285 288 293 293
154 152 151 157 159 153 163 170 171 148 149 138 158 40 350 321 335 251 275 237 228 252 316 338 341 332 328 324 321 316 311 309 307 303 301 300 300 299 294 291 292 294 293 290 291 290 294 297 298 287 277 279 271 251 258 267 286 296 298 292 126 87 93 80 10 339 302 291 292 287 287 280 279 283
154 151 150 150 150 169 164 154 155 146 141 109 70 10 322 320 328 290 310 337 333 335 345 337 339 333 328 325 322 318 311 307 306 307 307 303 299 299 299 296 295 294 290 287 286 288 289 292 291 290 285 270 254 250 263 281 292 294 295 291 296 150 123 90 88 83 64 41 18 343 317 323 322 306
149 148 151 148 150 160 152 167 146 127 126 90 57 348 360 341 325 317 307 336 340 348 340 336 338 334 327 323 319 317 314 312 310 306 303 301 299 295 295 295 293 290 290 289 293 293 295 294 291 292 283 268 259 255 258 268 279 286 297 313 333 324 295 279 173 176 122 52 17 359 353 344 319 315
149 150 147 146 143 147 140 137 127 119 87 45 28 27 354 330 336 321 320 316 347 344 323 335 335 330 326 322 322 318 313 305 300 300 302 304 305 306 304 301 297 296 294 296 298 297 298 299 299 291 277 269 263 262 271 279 290 302 301 297 295 303 336 321 317 20 15 16 15 12 30 60 74 83